Location: Newark
(7.0858°N, 171.3717°E)
Time: 04:00:28
(UTC+00:00)

Explorer 11/Cluster Stage 4 - Visible Passes

Search period start: 19 May 2021 00:00
Search period end: 29 May 2021 00:00
Orbit: 467 x 1257 km, 28.8° (Epoch: 18 May)

Date Brightness Start Highest point End Pass type
(mag) Time Alt. Az. Time Alt. Az. Time Alt. Az.
19 May 9.7 07:43:27 10° NNW 07:47:02 14° N 07:50:47 10° NNE visible
19 May 9.4 09:33:24 10° NNW 09:38:17 17° N 09:39:35 16° NNE visible
20 May 9.6 07:32:57 10° NNW 07:36:11 13° N 07:39:33 10° NNE visible
20 May 9.3 09:22:11 10° NNW 09:27:21 18° NNE 09:28:52 17° NNE visible
20 May 9.9 11:10:26 10° NW 11:10:58 12° NW 11:10:58 12° NW visible
21 May 9.6 07:22:24 10° NNW 07:25:19 12° N 07:28:22 10° NNE visible
21 May 9.2 09:10:58 10° NNW 09:16:22 19° NNE 09:18:09 18° NNE visible
21 May 9.8 10:59:05 10° NW 11:00:16 15° NW 11:00:16 15° NW visible
22 May 9.6 07:11:49 10° NNW 07:14:28 12° N 07:17:15 10° NNE visible
22 May 9.1 08:59:44 10° NNW 09:05:23 21° NNE 09:07:26 19° NE visible
22 May 9.6 10:47:46 10° NW 10:49:32 17° NW 10:49:32 17° NW visible
23 May 9.5 07:01:08 10° NNW 07:03:38 12° N 07:06:13 10° NNE visible
23 May 9.0 08:48:31 10° NNW 08:54:21 23° NNE 08:56:44 20° NE visible
23 May 9.4 10:36:29 10° NW 10:38:49 21° NW 10:38:49 21° NW visible
24 May 8.9 08:37:19 10° NNW 08:43:18 25° NNE 08:46:01 21° NE visible
24 May 9.2 10:25:15 10° NW 10:28:07 24° NW 10:28:07 24° NW visible
25 May 8.7 08:26:08 10° NNW 08:32:14 27° NNE 08:35:21 21° ENE visible
25 May 9.0 10:14:03 10° NW 10:17:27 29° NW 10:17:27 29° NW visible
26 May 8.5 08:14:58 10° NW 08:21:09 30° NNE 08:24:43 22° ENE visible
26 May 8.7 10:02:55 10° WNW 10:06:49 34° NW 10:06:49 34° NW visible
27 May 8.3 08:03:49 10° NW 08:10:03 33° NNE 08:14:06 21° ENE visible
27 May 8.4 09:51:50 10° WNW 09:56:12 40° WNW 09:56:12 40° WNW visible
28 May 8.1 07:52:43 10° NW 07:58:56 37° NNE 08:03:32 20° E visible
28 May 8.2 09:40:48 10° WNW 09:45:39 45° WNW 09:45:39 45° WNW visible
